Terminal Aerodrome Forecast
Issued by NWS

Home | Current Version | Previous Version | Text Only | Print | Product List | Glossary On
Versions: 1 2 3 4 5 6 7 8 9 10 11 12 13 14 15 16
000
FTUS42 KTBW 210200 AAA
TAFPIE
TAF AMD
KPIE 210232Z 2103/2124 VRB04KT P6SM BKN090 BKN250
     FM210900 12005KT P6SM SCT020 BKN080 BKN250
     FM212100 19006KT P6SM VCSH OVC050=

USA.gov is the U.S. government's official web portal to all federal, state and local government web resources and services.